Location: Lower Kingswood
(51.2667°N, 0.2167°W)
Time: 11:02:29
(UTC+00:00)

Okean 3 Rocket - Pass Details

Date: 26 September 2023
Orbit: 612 x 643 km, 82.5° (Epoch: 29 November)

Event Time Altitude Azimuth Distance (km) Brightness Sun altitude
Rises 03:44:13 0° 349° (N) 2,955 7.2 -20.3°
Reaches altitude 10° 03:46:29 10° 350° (N) 2,037 6.4 -20.0°
Maximum altitude 03:51:01 87° 79° (E) 641 3.6 -19.4°
Drops below altitude 10° 03:55:28 10° 170° (S) 2,001 6.0 -18.7°
Sets 03:57:40 0° 171° (S) 2,898 6.9 -18.4°
